User: anonymous   Login
Location: Cossonay
(46.5833°N, 6.4167°E)
Time: 03:10:09
(UTC+00:00)
Language:

CBERS-1 - Orbit

View from above orbital plane
View from above orbital plane
View from above satellite
View from above satellite

Ground track
Ground track

The orbit data is extracted from the following two-line orbital elements,

1 25940U 99057A   20221.87461885 -.00000009 +00000-0 +12355-4 0  9994
2 25940 098.6107 166.4914 0004821 179.8763 180.2424 14.35507207090611
Epoch (UTC): 08 August 2020 20:59:27
Eccentricity: 0.0004821
inclination: 98.6107°
perigee height: 770 km
apogee height: 777 km
right ascension of ascending node: 166.4914°
argument of perigee: 179.8763°
revolutions per day: 14.35507207
mean anomaly at epoch: 180.2424°
orbit number at epoch: 9061

The dashed part of the orbit path shows where the satellite is in the earth's shadow,  

DLR